Weather Service Report


846 
ASUS41 KCTP 250010
RWRCTP

REGIONAL WEATHER ROUNDUP
NATIONAL WEATHER SERVICE STATE COLLEGE PA
800 PM EDT FRI OCT 24 2014

Note: "fair" indicates few or no clouds below 12,000 feet with no 
significant weather and/or obstructions to visibility.

* = STATION THAT DOES NOT REPORT PRECIPITATION /E.G. RAIN...SNOW...ETC/
    THUNDER OR FOG.

PAZ002>004-007>009-013>016-020>023-029>032-250100-
WESTERN PENNSYLVANIA
  
CITY           SKY/WX    TMP DP  RH WIND       PRES   REMARKS
ERIE           CLEAR     50  43  77 S5        29.99S                  
MEADVILLE      CLEAR     49  41  74 N3        30.00R                  
FRANKLIN*      CLEAR     52  36  54 W3        30.01R                  
NEW CASTLE       N/A     50  38  63 CALM      30.01S                  
BEAVER COUNTY  CLEAR     52  37  58 W3        30.01R                  
BUTLER*        CLEAR     48  36  61 CALM      30.02S                  
PITTSBURGH INT PTCLDY    54  37  52 SW5       30.01R                  
PITTSBURGH     CLEAR     53  35  50 SW6       30.00S                  
INDIANA*       PTCLDY    48  39  71 CALM      30.03S                  
LATROBE        PTCLDY    46  37  71 SW9       30.02R                  
WASHINGTON CO* CLEAR     45  37  76 CALM      30.03S                  
$$

PAZ004>006-010>012-017>019-024>028-033>037-041-042-045-046-049>053-250100-
CENTRAL PENNSYLVANIA
  
CITY           SKY/WX    TMP DP  RH WIND       PRES   REMARKS
BRADFORD       CLEAR     47  35  63 NW6       29.97R                  
DUBOIS         PTCLDY    51  36  56 W6        29.97R                  
CLEARFIELD     PTCLDY    51  37  58 W5        29.97S                  
JOHNSTOWN      CLEAR     48  36  63 W8        29.99R                  
ALTOONA        PTCLDY    47  38  71 SE3       29.98R                  
STATE COLLEGE  CLEAR     54  37  54 W7        29.95R                  
WILLIAMSPORT   CLOUDY    59  29  31 W6        29.90R                  
SELINSGROVE    MOCLDY    59  34  39 W3        29.91R                  
FT INDIANTOWN  MOCLDY    61  36  39 W8        29.89R                  
CAPITAL CITY   PTCLDY    59  36  42 W8        29.91R                  
HARRISBURG     MOCLDY    57  39  51 NW10      29.90R                  
YORK           PTCLDY    55  36  48 W7        29.91R                  
$$

PAZ038>040-043-044-047-048-054-055-060>062-067>071-250100-
EASTERN PENNSYLVANIA
  
CITY           SKY/WX    TMP DP  RH WIND       PRES   REMARKS
SCRANTON       PTCLDY    57  38  48 N9        29.88R                  
MOUNT POCONO   PTCLDY    53  35  50 NW12G21   29.86R                  
ALLENTOWN      MOCLDY    60  41  49 NW7       29.85R                  
QUAKERTOWN*    CLOUDY    55  45  67 CALM      29.86R                  
READING        CLOUDY    61  34  36 W10       29.86R                  
LANCASTER      CLOUDY    56  38  50 W10       29.89R                  
COATESVILLE    CLOUDY    57  37  47 W12       29.88R                  
POTTSTOWN      CLOUDY    60  36  40 W3        29.87R                  
BLUE BELL      MOCLDY    63  43  48 CALM      29.84R                  
DOYLESTOWN     MOCLDY    59  42  53 NW5       29.84R                  
WILLOW GROVE   NOT AVBL                                               
NORTH PHILA    MOCLDY    60  43  53 W5        29.86R                  
PHILADELPHIA   MOCLDY    62  41  46 W9        29.86R                  
$$

Return to Home page


Western Regional Climate Center, wrcc@dri.edu